When you browse on this site, cookies collect data to enhance your experience and personalize the content and advertising you see.
Visit our Privacy Policy to learn more. By continuing to use the site, you agree to this use of cookies and data.
  • In Österreich
  • Länderverzeichnis
  • Für 7 Tage
  • Wassertemperatur
  • Wetterkarte
  • News
  • Widgets
  • user-avatar
    Anmelden

    Stündliche Wetter Miranda

    Heute, 23 September, Montag

    Zeit Temperatur Niederschläge Wind Luftdruck Luftfeuchtigkeit
    00:00 +21°C° 0.4 mm 1 m/S 668 mmHg 89%
    01:00 +21°C° 0 mm 1 m/S 668 mmHg 89%
    02:00 +21°C° 0.5 mm 1 m/S 668 mmHg 89%
    03:00 +21°C° 0.5 mm 1 m/S 668 mmHg 90%
    04:00 +21°C° 0.5 mm 1 m/S 668 mmHg 90%
    05:00 +21°C° 0 mm 1 m/S 669 mmHg 89%
    06:00 +21°C° 0 mm 1 m/S 669 mmHg 87%
    07:00 +22°C° 0 mm 1 m/S 669 mmHg 86%
    08:00 +24°C° 0 mm 1 m/S 670 mmHg 79%
    09:00 +26°C° 0 mm 1 m/S 670 mmHg 73%
    10:00 +28°C° 0 mm 1 m/S 671 mmHg 66%
    11:00 +29°C° 0.3 mm 1 m/S 670 mmHg 64%
    12:00 +29°C° 0.3 mm 1 m/S 670 mmHg 62%
    13:00 +30°C° 0.3 mm 1 m/S 669 mmHg 59%
    14:00 +29°C° 0.7 mm 1 m/S 669 mmHg 63%
    15:00 +29°C° 0.7 mm 1 m/S 668 mmHg 66%
    16:00 +28°C° 0.7 mm 1 m/S 667 mmHg 69%
    17:00 +26°C° 0.8 mm 1 m/S 667 mmHg 75%
    18:00 +25°C° 0.8 mm 1 m/S 667 mmHg 81%
    19:00 +23°C° 0.8 mm 1 m/S 667 mmHg 88%
    20:00 +22°C° 0.6 mm 1 m/S 668 mmHg 87%
    21:00 +22°C° 0.6 mm 1 m/S 668 mmHg 86%
    22:00 +21°C° 0.6 mm 1 m/S 668 mmHg 86%
    23:00 +21°C° 0.1 mm 1 m/S 668 mmHg 85%

    Morgen, 24 September, Dienstag

    Zeit Temperatur Niederschläge Wind Luftdruck Luftfeuchtigkeit
    00:00 +21°C° 0.1 mm 1 m/S 668 mmHg 83%
    01:00 +21°C° 0.1 mm 1 m/S 668 mmHg 82%
    02:00 +20°C° 0 mm 1 m/S 668 mmHg 82%
    03:00 +20°C° 0 mm 1 m/S 667 mmHg 81%
    04:00 +20°C° 0 mm 1 m/S 667 mmHg 81%
    05:00 +21°C° 0 mm 1 m/S 668 mmHg 81%
    06:00 +21°C° 0 mm 1 m/S 668 mmHg 80%
    07:00 +20°C° 0 mm 0 m/S 669 mmHg 80%
    08:00 +24°C° 0 mm 1 m/S 670 mmHg 75%
    09:00 +26°C° 0 mm 1 m/S 670 mmHg 70%
    10:00 +28°C° 0 mm 1 m/S 671 mmHg 65%
    11:00 +28°C° 0.5 mm 1 m/S 670 mmHg 65%
    12:00 +29°C° 0.5 mm 1 m/S 670 mmHg 64%
    13:00 +29°C° 0.5 mm 1 m/S 669 mmHg 64%
    14:00 +29°C° 0.7 mm 1 m/S 668 mmHg 67%
    15:00 +28°C° 0.7 mm 1 m/S 668 mmHg 71%
    16:00 +27°C° 0.7 mm 1 m/S 667 mmHg 74%
    17:00 +26°C° 0.7 mm 1 m/S 668 mmHg 79%
    18:00 +25°C° 0.7 mm 1 m/S 668 mmHg 84%
    19:00 +21°C° 0.7 mm 0 m/S 668 mmHg 89%
    20:00 +23°C° 0.3 mm 1 m/S 668 mmHg 89%
    21:00 +22°C° 0.3 mm 1 m/S 669 mmHg 88%
    22:00 +22°C° 0.3 mm 1 m/S 669 mmHg 88%
    23:00 +22°C° 0.3 mm 1 m/S 669 mmHg 88%

    übermorgen, 25 September, Mittwoch

    Zeit Temperatur Niederschläge Wind Luftdruck Luftfeuchtigkeit
    00:00 +21°C° 0.3 mm 1 m/S 668 mmHg 88%
    01:00 +21°C° 0.3 mm 1 m/S 668 mmHg 88%
    02:00 +21°C° 0.2 mm 1 m/S 668 mmHg 88%
    03:00 +21°C° 0.2 mm 1 m/S 668 mmHg 88%
    04:00 +21°C° 0.2 mm 1 m/S 668 mmHg 88%
    05:00 +21°C° 0.2 mm 1 m/S 668 mmHg 87%
    06:00 +22°C° 0.2 mm 1 m/S 669 mmHg 86%
    07:00 +22°C° 0.2 mm 1 m/S 669 mmHg 86%
    08:00 +24°C° 0.1 mm 1 m/S 670 mmHg 81%
    09:00 +26°C° 0.1 mm 1 m/S 670 mmHg 76%
    10:00 +28°C° 0.1 mm 1 m/S 671 mmHg 71%
    11:00 +28°C° 1.1 mm 1 m/S 670 mmHg 71%
    12:00 +28°C° 1.1 mm 1 m/S 669 mmHg 71%
    13:00 +29°C° 1.1 mm 1 m/S 669 mmHg 71%
    14:00 +28°C° 0.7 mm 1 m/S 668 mmHg 73%
    15:00 +28°C° 0.7 mm 1 m/S 668 mmHg 74%
    16:00 +27°C° 0.7 mm 1 m/S 667 mmHg 76%
    17:00 +26°C° 0.6 mm 1 m/S 667 mmHg 80%
    18:00 +25°C° 0.6 mm 1 m/S 667 mmHg 84%
    19:00 +23°C° 0.6 mm 1 m/S 667 mmHg 88%
    20:00 +23°C° 0.7 mm 1 m/S 668 mmHg 89%
    21:00 +23°C° 0.7 mm 1 m/S 668 mmHg 89%
    22:00 +23°C° 0.7 mm 1 m/S 669 mmHg 90%
    23:00 +22°C° 0.5 mm 1 m/S 669 mmHg 90%

    26 September, Donnerstag

    Zeit Temperatur Niederschläge Wind Luftdruck Luftfeuchtigkeit
    00:00 +22°C° 0.5 mm 1 m/S 668 mmHg 89%
    01:00 +22°C° 0.5 mm 1 m/S 668 mmHg 89%
    02:00 +22°C° 0.1 mm 1 m/S 668 mmHg 89%
    03:00 +21°C° 0.1 mm 1 m/S 668 mmHg 89%
    04:00 +21°C° 0.1 mm 1 m/S 667 mmHg 89%
    05:00 +22°C° 0 mm 1 m/S 668 mmHg 88%
    06:00 +22°C° 0 mm 1 m/S 668 mmHg 87%
    07:00 +22°C° 0 mm 1 m/S 669 mmHg 86%
    08:00 +24°C° 0.2 mm 1 m/S 669 mmHg 81%
    09:00 +26°C° 0.2 mm 1 m/S 670 mmHg 76%
    10:00 +28°C° 0.2 mm 1 m/S 670 mmHg 72%
    11:00 +28°C° 1.1 mm 1 m/S 670 mmHg 71%
    12:00 +29°C° 1.1 mm 1 m/S 669 mmHg 70%
    13:00 +29°C° 1.1 mm 1 m/S 669 mmHg 68%
    14:00 +29°C° 1.4 mm 1 m/S 668 mmHg 72%
    15:00 +28°C° 1.4 mm 1 m/S 667 mmHg 75%
    16:00 +27°C° 1.4 mm 1 m/S 667 mmHg 79%
    17:00 +26°C° 2.1 mm 1 m/S 667 mmHg 84%
    18:00 +24°C° 2.1 mm 1 m/S 667 mmHg 88%
    19:00 +23°C° 2.1 mm 1 m/S 667 mmHg 93%
    20:00 +22°C° 0.7 mm 1 m/S 668 mmHg 92%
    21:00 +22°C° 0.7 mm 1 m/S 668 mmHg 91%
    22:00 +21°C° 0.7 mm 1 m/S 668 mmHg 90%
    23:00 +21°C° 0.2 mm 1 m/S 668 mmHg 90%

    27 September, Freitag

    Zeit Temperatur Niederschläge Wind Luftdruck Luftfeuchtigkeit
    00:00 +21°C° 0.2 mm 1 m/S 668 mmHg 89%
    01:00 +20°C° 0.2 mm 1 m/S 668 mmHg 88%
    02:00 +20°C° 0.1 mm 1 m/S 667 mmHg 88%
    03:00 +20°C° 0.1 mm 1 m/S 667 mmHg 88%
    04:00 +20°C° 0.1 mm 1 m/S 667 mmHg 88%
    05:00 +21°C° 0.1 mm 1 m/S 668 mmHg 86%
    06:00 +21°C° 0.1 mm 1 m/S 668 mmHg 85%
    07:00 +20°C° 0.1 mm 0 m/S 669 mmHg 84%
    08:00 +24°C° 0 mm 1 m/S 669 mmHg 80%
    09:00 +25°C° 0 mm 1 m/S 670 mmHg 75%
    10:00 +27°C° 0 mm 1 m/S 670 mmHg 71%
    11:00 +28°C° 0.5 mm 1 m/S 670 mmHg 67%
    12:00 +29°C° 0.5 mm 1 m/S 669 mmHg 63%
    13:00 +30°C° 0.5 mm 1 m/S 669 mmHg 59%
    14:00 +30°C° 0.9 mm 1 m/S 668 mmHg 63%
    15:00 +29°C° 0.9 mm 1 m/S 667 mmHg 68%
    16:00 +28°C° 0.9 mm 1 m/S 667 mmHg 72%
    17:00 +26°C° 1.3 mm 1 m/S 667 mmHg 78%
    18:00 +24°C° 1.3 mm 1 m/S 667 mmHg 84%
    19:00 +22°C° 1.3 mm 1 m/S 667 mmHg 91%
    20:00 +22°C° 0.4 mm 1 m/S 667 mmHg 90%
    21:00 +21°C° 0.4 mm 1 m/S 668 mmHg 90%
    22:00 +21°C° 0.4 mm 1 m/S 668 mmHg 89%
    23:00 +21°C° 0.1 mm 1 m/S 668 mmHg 89%

    28 September, Samstag

    Zeit Temperatur Niederschläge Wind Luftdruck Luftfeuchtigkeit
    00:00 +21°C° 0.1 mm 1 m/S 668 mmHg 89%
    01:00 +20°C° 0.1 mm 1 m/S 667 mmHg 89%
    02:00 +20°C° 0.2 mm 1 m/S 667 mmHg 89%
    03:00 +20°C° 0.2 mm 1 m/S 667 mmHg 89%
    04:00 +20°C° 0.2 mm 1 m/S 667 mmHg 89%
    05:00 +19°C° 0 mm 0 m/S 667 mmHg 88%
    06:00 +19°C° 0 mm 0 m/S 668 mmHg 88%
    07:00 +20°C° 0 mm 0 m/S 669 mmHg 87%
    08:00 +24°C° 0.1 mm 1 m/S 669 mmHg 82%
    09:00 +26°C° 0.1 mm 1 m/S 669 mmHg 77%
    10:00 +27°C° 0.1 mm 1 m/S 670 mmHg 72%
    11:00 +28°C° 0.5 mm 1 m/S 669 mmHg 71%
    12:00 +28°C° 0.5 mm 1 m/S 668 mmHg 71%
    13:00 +29°C° 0.5 mm 1 m/S 668 mmHg 71%
    14:00 +28°C° 1.2 mm 1 m/S 667 mmHg 72%
    15:00 +28°C° 1.2 mm 1 m/S 667 mmHg 74%
    16:00 +28°C° 1.2 mm 1 m/S 666 mmHg 76%
    17:00 +26°C° 1.9 mm 1 m/S 667 mmHg 81%
    18:00 +24°C° 1.9 mm 1 m/S 667 mmHg 87%
    19:00 +23°C° 1.9 mm 1 m/S 667 mmHg 92%
    20:00 +22°C° 0.7 mm 1 m/S 667 mmHg 92%
    21:00 +22°C° 0.7 mm 1 m/S 667 mmHg 92%
    22:00 +21°C° 0.7 mm 1 m/S 667 mmHg 91%
    23:00 +19°C° 0.2 mm 0 m/S 667 mmHg 91%
    Mehr zeigen